• Join FlightAware (Why Join?)
  • Login
  • US Flag 
Rudolph Flight #1: Arrived! 
07:41AM EST


 

Airport Tracker/Info


-or-


 

Live Flight TrackerFlight Track Log ✈ N317FL ✈ 03-May-2013 ✈ KNEW - KAUS

Flight Track Log - Related Links

Times and Time Zones

All times are in EDT time to prevent confusion due to time zone crossing. See the N317FL flight status page for this flight to view local times or setup timezone preferences in your user account.

Time Position Orientation Groundspeed Altitude Reporting Facility
EDT Latitude Longitude Course Direction KTS MPH feet Rate Location/Type
01:14PM 29.8594 -90.5544 253° West  Level FlightAware Approximate
01:14PM 29.9820 -90.3690 253° West 263 303 19,700  Level FlightAware
01:15PM 29.9540 -90.4660 252° West 258 297 23,500 2,340 Climbing FlightAware
01:16PM 29.9320 -90.5360 250° West 272 313 24,600 600 Climbing FlightAware
01:16PM 29.9140 -90.5940 250° West 272 313 24,600  Level FlightAware
01:17PM 29.8990 -90.6410 250° West 272 313 24,600  Level FlightAware
01:18PM 29.8850 -90.6870 251° West 272 313 24,600  Level FlightAware
01:18PM 29.8700 -90.7330 249° West 272 313 24,600  Level FlightAware
01:19PM 29.8560 -90.7800 251° West 272 313 24,600 5,100 Level FlightAware
01:21PM 29.9177 -91.1047 282° West 275 316 38,200 2,940 Climbing FlightAware ADS-B
01:25PM 29.9103 -91.4686 269° West 319 367 41,900 900 Climbing FlightAware ADS-B
01:26PM 29.9098 -91.5227 269° West 319 367 42,400 780 Climbing FlightAware ADS-B
01:26PM 29.9089 -91.6063 269° West 320 368 43,000 360 Climbing FlightAware ADS-B
01:27PM 29.9079 -91.6938 269° West 337 388 43,000  Level FlightAware ADS-B
01:28PM 29.9063 -91.8278 269° West 356 410 43,000  Level FlightAware ADS-B
01:29PM 29.9052 -91.9085 269° West 344 396 43,000  Level FlightAware ADS-B
01:30PM 29.9036 -92.0271 269° West 335 386 43,000  Level FlightAware ADS-B
01:31PM 29.9028 -92.0819 269° West 334 384 43,000  Level FlightAware ADS-B
01:31PM 29.9019 -92.1442 269° West 336 387 43,000  Level FlightAware ADS-B
01:32PM 29.9009 -92.2065 269° West 339 390 43,000  Level FlightAware ADS-B
01:32PM 29.8999 -92.2716 269° West 340 391 43,000  Level FlightAware ADS-B
01:33PM 29.8988 -92.3399 269° West 342 394 43,000  Level FlightAware ADS-B
01:34PM 29.8978 -92.3959 269° West 343 395 43,000  Level FlightAware ADS-B
01:34PM 29.8969 -92.4525 269° West 344 396 43,000  Level FlightAware ADS-B
01:35PM 29.8959 -92.5095 269° West 344 396 43,000  Level FlightAware ADS-B
01:35PM 29.8947 -92.5741 269° West 337 388 43,000  Level FlightAware ADS-B
01:36PM 29.8937 -92.6289 269° West 333 383 43,000  Level FlightAware ADS-B
01:36PM 29.8926 -92.6848 269° West 329 379 43,000  Level FlightAware ADS-B
01:37PM 29.8916 -92.7369 269° West 324 373 43,000  Level FlightAware ADS-B
01:37PM 29.8906 -92.7895 269° West 320 368 43,000  Level FlightAware ADS-B
01:38PM 29.8895 -92.8408 269° West 315 362 43,000  Level FlightAware ADS-B
01:38PM 29.8885 -92.8913 269° West 311 358 43,000  Level FlightAware ADS-B
01:39PM 29.8875 -92.9412 269° West 309 356 43,000  Level FlightAware ADS-B
01:39PM 29.8864 -92.9928 269° West 306 352 43,000  Level FlightAware ADS-B
01:40PM 29.8852 -93.0449 268° West 303 349 43,000  Level FlightAware ADS-B
01:40PM 29.8841 -93.0971 269° West 301 346 43,000  Level FlightAware ADS-B
01:41PM 29.8830 -93.1453 269° West 301 346 43,000  Level FlightAware ADS-B
01:41PM 29.8819 -93.1936 269° West 301 346 43,000  Level FlightAware ADS-B
01:42PM 29.8808 -93.2419 269° West 300 345 43,000  Level FlightAware ADS-B
01:42PM 29.8796 -93.2911 268° West 300 345 43,000  Level FlightAware ADS-B
01:43PM 29.8784 -93.3405 268° West 300 345 43,000  Level FlightAware ADS-B
01:43PM 29.8772 -93.3894 268° West 298 343 43,000  Level FlightAware ADS-B
01:44PM 29.8760 -93.4387 268° West 298 343 43,000  Level FlightAware ADS-B
01:44PM 29.8748 -93.4874 268° West 297 342 43,000 -900 Level FlightAware ADS-B
01:45PM 29.8735 -93.5395 268° West 321 369 42,100 -1,800 Descending FlightAware ADS-B
01:45PM 29.8720 -93.5930 268° West 344 396 41,200 -1,920 Descending FlightAware ADS-B
01:46PM 29.8705 -93.6497 268° West 346 398 40,200 -2,040 Descending FlightAware ADS-B
01:46PM 29.8691 -93.7061 268° West 338 389 39,100 -2,160 Descending FlightAware ADS-B
01:47PM 29.8677 -93.7603 268° West 328 377 38,000 -1,620 Descending FlightAware ADS-B
01:48PM 29.8661 -93.8174 268° West 317 365 37,400 -960 Descending FlightAware ADS-B
01:48PM 29.8647 -93.8670 268° West 305 351 37,000 -720 Descending FlightAware ADS-B
01:49PM 29.8633 -93.9151 268° West 296 341 36,700 -720 Descending FlightAware ADS-B
01:49PM 29.8619 -93.9645 268° West 295 339 36,300 -720 Descending FlightAware ADS-B
01:50PM 29.8604 -94.0140 268° West 293 337 36,000 -360 Descending FlightAware ADS-B
01:50PM 29.8595 -94.0455 268° West 291 335 36,000  Level FlightAware ADS-B
01:50PM 29.8581 -94.0922 268° West 289 333 36,000  Level FlightAware ADS-B
01:51PM 29.8567 -94.1385 268° West 288 331 36,000  Level FlightAware ADS-B
01:51PM 29.8553 -94.1860 268° West 286 329 36,000  Level FlightAware ADS-B
01:52PM 29.8539 -94.2326 268° West 285 328 36,000  Level FlightAware ADS-B
01:53PM 29.8524 -94.2795 268° West 285 328 36,000  Level FlightAware ADS-B
01:53PM 29.8510 -94.3259 268° West 285 328 36,000  Level FlightAware ADS-B
01:54PM 29.8495 -94.3714 268° West 285 328 36,000  Level FlightAware ADS-B
01:54PM 29.8480 -94.4178 268° West 285 328 36,000  Level FlightAware ADS-B
01:55PM 29.8465 -94.4647 268° West 285 328 36,000  Level FlightAware ADS-B
01:55PM 29.8449 -94.5115 268° West 285 328 36,000  Level FlightAware ADS-B
01:56PM 29.8434 -94.5579 268° West 285 328 36,000 -420 Level FlightAware ADS-B
01:56PM 29.8419 -94.6043 268° West 296 341 35,600 -1,200 Descending FlightAware ADS-B
01:57PM 29.8402 -94.6527 268° West 307 353 34,800 -1,620 Descending FlightAware ADS-B
01:57PM 29.8385 -94.7017 268° West 307 353 34,000 -1,740 Descending FlightAware ADS-B
01:58PM 29.8368 -94.7508 268° West 307 353 33,100 -1,680 Descending FlightAware ADS-B
01:58PM 29.8351 -94.8008 268° West 306 352 32,300 -1,620 Descending FlightAware ADS-B
01:59PM 29.8333 -94.8495 268° West 301 346 31,500 -1,620 Descending FlightAware ADS-B
01:59PM 29.8316 -94.8976 268° West 297 342 30,700 -1,380 Descending FlightAware ADS-B
02:00PM 29.8299 -94.9463 268° West 302 348 30,100 -720 Descending FlightAware ADS-B
02:00PM 29.8280 -94.9963 268° West 302 348 30,000 -120 Descending FlightAware ADS-B
02:01PM 29.8263 -95.0455 268° West 302 348 30,000  Level FlightAware ADS-B
02:01PM 29.8244 -95.0951 267° West 301 346 30,000  Level FlightAware ADS-B
02:02PM 29.8226 -95.1434 268° West 302 348 30,000  Level FlightAware ADS-B
02:02PM 29.8207 -95.1919 267° West 302 348 30,000  Level FlightAware ADS-B
02:03PM 29.8189 -95.2403 268° West 303 349 30,000  Level FlightAware ADS-B
02:03PM 29.8170 -95.2888 267° West 304 350 30,000  Level FlightAware ADS-B
02:04PM 29.8151 -95.3380 267° West 304 350 30,000 -300 Level FlightAware ADS-B
02:04PM 29.8131 -95.3887 267° West 312 359 29,700 -780 Descending FlightAware ADS-B
02:05PM 29.8111 -95.4399 267° West 318 366 29,200 -1,020 Descending FlightAware ADS-B
02:05PM 29.8090 -95.4918 267° West 318 366 28,700 -1,020 Descending FlightAware ADS-B
02:06PM 29.8069 -95.5426 267° West 317 365 28,200 -960 Descending FlightAware ADS-B
02:06PM 29.8061 -95.5660 268° West 316 364 28,000 -1,140 Descending FlightAware ADS-B
02:06PM 29.8068 -95.5804 273° West 314 361 27,800 -1,200 Descending FlightAware ADS-B
02:06PM 29.8083 -95.5916 279° West 312 359 27,700 -540 Descending FlightAware ADS-B
02:07PM 29.8174 -95.6367 283° West 305 351 27,500 -360 Descending FlightAware ADS-B
02:07PM 29.8263 -95.6845 282° West 307 353 27,400 -240 Descending FlightAware ADS-B
02:08PM 29.8358 -95.7345 282° West 308 354 27,300 -240 Descending FlightAware ADS-B
02:08PM 29.8452 -95.7832 283° West 308 354 27,200 -240 Descending FlightAware ADS-B
02:09PM 29.8553 -95.8361 282° West 309 356 27,100 -240 Descending FlightAware ADS-B
02:09PM 29.8649 -95.8858 283° West 309 356 27,000 -240 Descending FlightAware ADS-B
02:10PM 29.8743 -95.9350 282° West 309 356 26,900 -240 Descending FlightAware ADS-B
02:10PM 29.8837 -95.9839 283° West 309 356 26,800 -240 Descending FlightAware ADS-B
02:11PM 29.8931 -96.0332 282° West 308 354 26,700 -240 Descending FlightAware ADS-B
02:11PM 29.9023 -96.0815 282° West 307 353 26,600 -300 Descending FlightAware ADS-B
02:12PM 29.9119 -96.1327 282° West 309 356 26,400 -600 Descending FlightAware ADS-B
02:12PM 29.9215 -96.1833 282° West 313 360 26,000 -600 Descending FlightAware ADS-B
02:13PM 29.9310 -96.2334 282° West 314 361 25,800 -720 Descending FlightAware ADS-B
02:13PM 29.9404 -96.2832 282° West 312 359 25,300 -1,560 Descending FlightAware ADS-B
02:14PM 29.9498 -96.3336 282° West 309 356 24,200 -2,220 Descending FlightAware ADS-B
02:14PM 29.9590 -96.3823 282° West 307 353 23,100 -2,220 Descending FlightAware ADS-B
02:15PM 29.9681 -96.4312 282° West 314 361 22,000 -2,280 Descending FlightAware ADS-B
02:15PM 29.9775 -96.4812 282° West 316 364 20,800 -2,280 Descending FlightAware ADS-B
02:16PM 29.9862 -96.5277 282° West 310 357 19,800 -2,220 Descending FlightAware ADS-B
02:16PM 29.9951 -96.5757 282° West 302 348 18,700 -2,400 Descending FlightAware ADS-B
02:17PM 30.0049 -96.6282 282° West 301 346 17,300 -2,460 Descending FlightAware ADS-B
02:17PM 30.0135 -96.6749 282° West 291 335 16,100 -2,280 Descending FlightAware ADS-B
02:18PM 30.0223 -96.7226 282° West 280 322 15,000 -2,040 Descending FlightAware ADS-B
02:18PM 30.0305 -96.7665 282° West 274 315 14,000 -1,980 Descending FlightAware ADS-B
02:19PM 30.0402 -96.8199 282° West 269 310 12,800 -1,920 Descending FlightAware ADS-B
02:20PM 30.0479 -96.8618 282° West 265 305 11,900 -1,740 Descending FlightAware ADS-B
02:20PM 30.0501 -96.8723 284° West 262 302 11,700 -1,080 Descending FlightAware ADS-B
02:20PM 30.0521 -96.8849 280° West 258 297 11,600 -900 Descending FlightAware ADS-B
02:20PM 30.0525 -96.8915 274° West 259 298 11,500 -1,080 Descending FlightAware ADS-B
02:20PM 30.0545 -96.9339 273° West 261 300 11,000 -1,140 Descending FlightAware ADS-B
02:21PM 30.0577 -96.9877 274° West 259 298 10,200 -1,140 Descending FlightAware ADS-B
02:21PM 30.0590 -97.0088 274° West 265 305 10,000 -1,140 Descending FlightAware ADS-B
02:22PM 30.0604 -97.0328 274° West 263 303 9,600 -1,200 Descending FlightAware ADS-B
02:23PM 30.0640 -97.1010 274° West 232 267 8,600 -1,320 Descending FlightAware
02:23PM 30.0660 -97.1320 274° West 236 272 7,900 -1,560 Descending FlightAware
02:23PM 30.0690 -97.1730 275° West 246 283 7,200 -1,320 Descending FlightAware
02:24PM 30.0710 -97.2050 274° West 247 284 6,700 -1,320 Descending FlightAware
02:24PM 30.0730 -97.2450 273° West 251 289 6,000 -1,380 Descending FlightAware
02:25PM 30.0740 -97.2670 273° West 251 289 5,700 -1,200 Descending FlightAware
02:25PM 30.0760 -97.2970 274° West 251 289 5,200 -1,200 Descending FlightAware
02:25PM 30.0770 -97.3190 273° West 253 291 4,900 -1,200 Descending FlightAware
02:26PM 30.0790 -97.3570 273° West 250 288 4,300 -1,320 Descending FlightAware
02:26PM 30.0820 -97.3930 276° West 251 289 3,700 -1,320 Descending FlightAware
02:27PM 30.0870 -97.4260 280° West 249 287 3,200 -1,200 Descending FlightAware
02:27PM 30.0930 -97.4520 285° West 238 274 2,800 -1,200 Descending FlightAware
02:27PM 30.0968 -97.4664 287° West 231 266 2,600 -900 Descending FlightAware ADS-B
02:28PM 30.1100 -97.5179 287° West 220 253 2,000 -720 Descending FlightAware ADS-B
02:28PM 30.1170 -97.5434 288° West 207 238 1,800 -300 Descending FlightAware ADS-B
02:29PM 30.1270 -97.5810 287° West 172 198 1,700 -180 Descending FlightAware
02:29PM 30.1292 -97.5868 294° West 172 198 1,700  Level FlightAware ADS-B
02:29PM 30.1332 -97.6002 289° West 164 189 1,700 -480 Level FlightAware ADS-B
02:30PM 30.1410 -97.6240 291° West 129 148 1,300 -660 Descending FlightAware
02:30PM 30.1443 -97.6317 296° West 120 138 1,200 -720 Descending FlightAware ADS-B
02:30PM 30.1461 -97.6354 299° West 116 133 1,100 -900 Descending FlightAware ADS-B
02:30PM 30.1498 -97.6425 301° West 109 125 900 -840 Descending FlightAware ADS-B
02:31PM 30.1520 -97.6464 303° West 107 123 800 -540 Descending FlightAware ADS-B
02:31PM 30.1532 -97.6481 309° West 108 124 800 -240 Level FlightAware ADS-B
02:32PM 30.1740 -97.6600 334° Northwest 101 116 600 -240 Descending FlightAware
02:38PM 30.1833 -97.6667 270° West  Level FlightAware Approximate
02:39PM 30.1945 -97.6699 270° West  Level Estimated
02:40PM 30.1945 -97.6699 270° West  Level Estimated